Home   Weather   Lynchburg   Past weeks
Flag for USA

Past Weather in Lynchburg, Virginia, USA — Yesterday and Last 2 Weeks

Now
62 °F

Scattered clouds.


Feels Like: 62 °F
Forecast: 61 / 47 °F
Wind: 8 mph from West

Location: Lynchburg Regional Airport

Current Time: Oct 16, 2019 at 4:31:20 pm

Latest Report: Oct 16, 2019 at 3:54 pm


Visibility: 10 mi

Pressure: 29.61 "Hg

Humidity: 70%

Dew Point: 52 °F

Location of LynchburgLocation

Past Weather in Lynchburg — Graph

°F

Lynchburg Temperature Yesterday

Maximum temperature yesterday: 74 °F (at 3:54 pm)
Minimum temperature yesterday: 40 °F (at 4:54 am)
Average temperature yesterday: 56 °F

High & Low Weather Summary for the Past Weeks

 TemperatureHumidityPressure
High96 °F (Oct 3, 1:54 pm)100% (Oct 2, 6:54 am)30.38 "Hg (Oct 2, 6:54 am)
Low40 °F (Oct 15, 4:54 am)18% (Oct 14, 3:54 pm)29.60 "Hg (Oct 16, 2:54 pm)
Average64 °F73%30.09 "Hg
* Reported Oct 1 2:54 pm — Oct 16 2:54 pm, Lynchburg. Weather by CustomWeather, © 2019

Note: Actual official high and low records may vary slightly from our data, if they occured in-between our weather recording intervals... More about our weather records

Advertising

Lynchburg Weather History for the Previous 24 Hours

Scroll right to see more
 ConditionsComfort  
Time TempWeatherWind HumidityBarometerVisibility
2:54 pm
Wed, Oct 16
59 °FMore clouds than sun.5 mph90%29.60 "Hg10 mi
1:54 pm59 °FMostly cloudy.7 mph87%29.61 "Hg10 mi
12:54 pm56 °FMostly cloudy.No wind90%29.63 "Hg10 mi
12:08 pm54 °FPartly sunny.3 mph93%29.68 "Hg10 mi
11:54 am53 °FLight rain. Mostly cloudy.No wind96%29.70 "Hg10 mi
11:37 am52 °FRain. Fog.3 mph97%29.73 "Hg2 mi
11:13 am51 °FHeavy rain. Fog.7 mph100%29.77 "Hg1 mi
10:54 am51 °FRain. Fog.6 mph100%29.72 "Hg2 mi
9:54 am52 °FLight rain. Fog.3 mph97%29.75 "Hg2 mi
9:37 am52 °FRain. Fog.5 mph97%29.76 "Hg2 mi
8:54 am52 °FLight rain. Fog.No wind97%29.79 "Hg6 mi
8:20 am52 °FLight rain. Fog.5 mph97%29.81 "Hg6 mi
7:54 am52 °FLight rain. Overcast.3 mph97%29.83 "Hg8 mi
6:54 am51 °FLight rain. Fog.5 mph96%29.88 "Hg4 mi
5:54 am52 °FLight rain. Fog.No wind93%29.87 "Hg5 mi
4:54 am52 °FPassing clouds.No wind86%29.87 "Hg10 mi
3:54 am50 °FClear.No wind86%29.89 "Hg10 mi
2:54 am52 °FClear.No wind77%29.92 "Hg10 mi
1:54 am52 °FClear.No wind80%29.95 "Hg10 mi
12:54 am54 °FClear.No wind72%29.97 "Hg10 mi
11:54 pm
Tue, Oct 15
53 °FClear.No wind74%29.99 "Hg10 mi
10:54 pm55 °FClear.No wind67%30.01 "Hg10 mi
9:54 pm58 °FClear.5 mph58%30.01 "Hg10 mi
8:54 pm58 °FClear.3 mph58%30.02 "Hg10 mi
7:54 pm57 °FPassing clouds.No wind62%30.03 "Hg10 mi
6:54 pm61 °FClear.No wind54%30.03 "Hg10 mi
5:54 pm69 °FSunny.5 mph38%30.03 "Hg10 mi
4:54 pm72 °FSunny.9 mph30%30.05 "Hg10 mi
Weather by CustomWeather, © 2019

See weather overview